Acapulco, Mexico

2:43 PM CST on January 19, 2018 (GMT -0600)
Gen Juan N Alvarez International

Weather History for MMAA - March, 2013

Change the Weather History Date:

Friday, March 1, 2013

  Actual Average Record
Temperature  
Mean Temperature 78 °F -  
Max Temperature 90 °F 85 °F 95 °F (2015)
Min Temperature 67 °F 68 °F 64 °F (2007)
Cooling Degree Days 14    
Growing Degree Days 28 (Base 50)    
Moisture  
Dew Point 72 °F    
Average Humidity 73    
Maximum Humidity 87    
Minimum Humidity 43    
Precipitation  
Precipitation 0.00 in - - ()
Sea Level Pressure  
Sea Level Pressure 29.85 in    
Wind  
Wind Speed 2 mph ()    
Max Wind Speed 12 mph    
Max Gust Speed -    
Visibility 8.4 miles    
Events      
Averages and records for this station are not official NWS values.
T = Trace of Precipitation, MM = Missing Value Source: Averaged Metar Reports

Daily Weather History Graph

Daily Weather History Graph

Search for Another Location

Airport or City:

Trip Planner

Search our weather history database for the weather conditions in past years. The results will help you decide how hot, cold, wet, or windy it might be!

Date:

Astronomy

Mar. 01, 2013 Rise Set
Actual Time 6:56 AM CST 6:45 PM CST
Civil Twilight 6:35 AM CST 7:07 PM CST
Nautical Twilight 6:09 AM CST 7:32 PM CST
Astronomical Twilight 5:44 AM CST 7:57 PM CST
Moon 10:31 PM CST (3/1) 9:28 AM CST (3/1)
Length of Visible Light 12h 32m
Length of Day
11h 49m
Waning Gibbous, 83% of the Moon is Illuminated
Mar 1
Waning Gibbous
Mar 4
Last Quarter
Mar 11
New
Mar 19
First Quarter
Mar 27
Full

Hourly Weather History & Observations

Time (CST) Temp. Heat Index Dew Point Humidity Pressure Visibility Wind Dir Wind Speed Gust Speed Precip Events Conditions
12:45 AM 77.0 °F - 71.6 °F 83% 29.88 in 8.0 mi Calm Calm - N/A   Clear
1:45 AM 77.0 °F - 71.6 °F 83% 29.87 in 8.0 mi Calm Calm - N/A   Clear
2:45 AM 81 °F - 69 °F 60% 29.85 in 6 mi NW 2.2 mph - -   Clear
2:45 AM 75.2 °F - 69.8 °F 83% 29.90 in 8.0 mi Calm Calm - N/A   Clear
3:42 AM 75.2 °F - 69.8 °F 83% 29.85 in 8.0 mi Calm Calm - N/A   Clear
4:42 AM 75.2 °F - 69.8 °F 83% 29.85 in 8.0 mi Calm Calm - N/A   Clear
5:42 AM 75.2 °F - 69.8 °F 83% 29.88 in 8.0 mi Calm Calm - N/A   Clear
5:50 AM 69 °F - 66 °F 87% 29.84 in 6 mi NW 2.2 mph - -   Clear
6:45 AM 71.6 °F - 64.4 °F 78% 29.86 in 8.0 mi Calm Calm - N/A   Partly Cloudy
7:42 AM 71.6 °F - 66.2 °F 83% 29.87 in 8.0 mi Calm Calm - N/A   Scattered Clouds
8:47 AM 77.0 °F - 71.6 °F 83% 29.91 in 8.0 mi Calm Calm - N/A   Scattered Clouds
8:50 AM 79 °F - 68 °F 62% 29.88 in 12 mi NNW 2.2 mph - -   Clear
9:46 AM 78.8 °F - 68.0 °F 69% 29.88 in 8.0 mi Calm Calm - N/A   Scattered Clouds
10:45 AM 86.0 °F 93.4 °F 73.4 °F 66% 29.88 in 8.0 mi SW 5.8 mph - N/A   Scattered Clouds
11:50 AM 89 °F - 69 °F 43% 29.86 in 12 mi SW 4.5 mph - -   Clear
11:50 AM 86.0 °F 93.4 °F 73.4 °F 66% 29.88 in 8.0 mi SW 5.8 mph - N/A   Scattered Clouds
12:52 PM 86.0 °F 95.1 °F 75.2 °F 70% 29.87 in 8.0 mi SW 5.8 mph - N/A   Scattered Clouds
1:46 PM 87.8 °F 97.6 °F 75.2 °F 66% 29.83 in 8.0 mi WSW 11.5 mph - N/A   Scattered Clouds
2:45 PM 88 °F - 70 °F 45% 29.81 in 12 mi West 6.7 mph - -   Clear
2:47 PM 89.6 °F 99.8 °F 75.2 °F 62% 29.82 in 8.0 mi WSW 11.5 mph - N/A   Scattered Clouds
3:45 PM 89.6 °F 99.8 °F 75.2 °F 62% 29.79 in 8.0 mi WSW 11.5 mph - N/A   Scattered Clouds
4:42 PM 87.8 °F 97.6 °F 75.2 °F 66% 29.78 in 8.0 mi WSW 9.2 mph - N/A   Scattered Clouds
5:43 PM 86.0 °F 95.1 °F 75.2 °F 70% 29.76 in 8.0 mi WSW 11.5 mph - N/A   Scattered Clouds
5:50 PM 85 °F - 74 °F 64% 29.77 in 12 mi WSW 6.7 mph - -   Clear
6:42 PM 84.2 °F 90.9 °F 73.4 °F 70% 29.79 in 8.0 mi WSW 9.2 mph - N/A   Scattered Clouds
7:43 PM 82.4 °F 88.2 °F 73.4 °F 74% 29.81 in 8.0 mi WSW 5.8 mph - N/A   Scattered Clouds
8:43 PM 80.6 °F 85.4 °F 73.4 °F 79% 29.86 in 8.0 mi Calm Calm - N/A   Clear
8:50 PM 78 °F - 73 °F 79% 29.86 in 12 mi West 2.2 mph - -   Clear
9:43 PM 80.6 °F 85.4 °F 73.4 °F 79% 29.87 in 8.0 mi Calm Calm - N/A   Clear
10:45 PM 80.6 °F 85.4 °F 73.4 °F 79% 29.89 in 8.0 mi Calm Calm - N/A   Clear
11:45 PM 76 °F - 73 °F 86% 29.91 in 6 mi WNW 2.2 mph - -   Partly Cloudy
11:45 PM 78.8 °F - 73.4 °F 83% 29.88 in 8.0 mi Calm Calm - N/A   Clear